Temp
60 60 60 60 60 60 59 59 59 58 57 57 57 58 57 57 57 53 49 53 51 46 48 54 53 49 50 47 44 46 44 44 39 35 31 34 29 38 35 38 35 32 25 25 26 22 24 48 44 38 42 44 46 45
60 60 60 60 60 59 59 59 59 58 58 57 57 57 57 57 57 55 48 53 54 48 47 54 54 54 53 51 48 46 46 45 44 37 36 34 32 32 34 28 40 33 39 32 34 33 45 47 46 47 47 46 46 45
60 60 59 59 59 59 59 58 58 57 56 56 56 56 57 57 57 55 47 47 49 45 45 46 47 51 55 55 55 46 44 49 46 46 41 37 37 36 28 32 36 42 44 34 37 42 44 46 48 48 46 45 47 47
59 59 59 59 58 58 58 58 57 57 56 56 56 56 56 56 57 54 45 46 46 46 40 42 55 48 55 54 55 53 50 50 48 44 39 31 31 41 35 39 37 42 41 39 38 41 44 45 45 45 46 47 47 47
59 59 58 58 58 58 58 58 57 56 56 56 56 56 55 55 55 50 46 46 47 46 39 40 47 49 51 51 52 52 50 46 41 40 36 32 38 38 36 35 34 45 41 35 34 42 40 40 45 46 46 45 46 45
59 58 58 57 57 57 57 57 56 56 55 55 55 55 54 55 54 48 42 46 48 46 42 30 44 44 48 50 49 48 47 44 41 39 37 38 43 38 26 28 42 44 46 45 42 44 44 44 46 47 45 46 46 46
58 57 57 57 57 56 56 55 55 55 55 55 54 54 54 55 46 44 43 45 49 46 41 31 31 41 44 45 43 42 43 41 40 37 36 37 40 39 29 29 41 44 46 45 46 44 40 42 41 46 46 47 47 46
57 57 56 56 56 56 55 55 55 55 55 55 54 54 53 52 50 44 45 50 49 42 40 27 29 34 40 37 35 40 38 38 38 37 38 37 37 34 28 37 42 44 45 45 45 46 42 42 44 45 45 45 43 42
56 56 56 56 56 55 55 55 55 55 55 54 53 53 48 44 40 41 52 50 47 43 27 30 25 26 40 37 37 37 37 29 36 31 34 34 30 27 36 39 41 44 43 43 44 43 41 41 42 42 42 42 40 40
55 55 55 55 55 55 55 55 55 54 54 53 48 44 36 40 51 50 44 40 38 38 36 28 34 29 37 33 29 31 28 31 22 33 34 26 28 37 41 42 43 44 46 46 39 38 39 39 40 40 41 42 41 41
55 55 55 55 54 54 55 55 54 53 52 44 40 40 44 50 42 39 34 32 32 28 34 34 35 32 38 33 30 33 26 28 20 28 27 24 24 34 41 41 43 45 45 44 45 44 43 42 42 42 42 43 42 41
54 54 54 54 54 54 54 53 53 47 43 45 44 45 43 39 34 30 26 32 30 28 34 36 34 35 35 38 32 30 25 24 19 32 22 23 30 39 41 44 44 45 46 47 47 47 46 46 45 43 42 42 41 41
53 54 54 54 54 54 53 53 52 52 51 45 40 36 33 32 22 25 20 24 27 33 37 34 32 35 34 36 31 29 29 23 31 21 24 27 35 41 42 45 46 47 47 46 46 46 47 46 46 45 43 42 42 41
53 53 53 53 53 53 52 52 53 51 45 34 26 25 26 21 25 28 30 30 34 34 35 36 34 32 37 30 33 30 29 27 18 18 23 30 36 40 43 44 44 45 45 45 45 45 45 44 44 45 44 43 42 40
53 53 53 53 53 52 53 52 52 47 40 29 29 21 25 33 33 35 35 35 35 37 37 36 35 36 32 32 31 26 24 21 24 23 29 35 39 41 41 43 42 42 44 43 44 43 43 43 42 41 42 42 42 41
53 52 51 52 52 52 51 51 47 45 39 30 30 28 33 31 31 33 33 33 37 40 40 38 32 30 23 26 21 23 20 21 26 31 36 39 40 40 41 42 42 42 42 43 42 42 43 42 41 41 41 41 41 40
52 46 52 52 52 51 51 44 41 35 32 30 28 34 33 33 33 33 34 35 40 40 30 33 29 23 25 18 19 25 24 29 34 36 38 40 40 41 41 43 43 43 43 42 42 42 42 43 42 40 38 39 39 40
46 50 51 51 51 50 44 42 37 32 27 32 28 31 33 36 35 34 36 37 38 40 38 30 30 25 21 20 22 29 33 35 37 38 39 40 41 42 44 41 43 42 41 41 41 41 41 39 38 36 37 38 37 37
50 50 51 52 49 42 37 37 37 31 33 35 33 34 35 35 37 39 38 39 39 40 39 33 22 22 28 29 31 33 34 35 36 39 40 41 41 42 43 43 43 41 40 40 40 39 38 39 37 37 36 36 34 34
51 51 51 51 47 38 33 33 37 33 31 32 34 33 34 35 37 37 37 37 37 34 26 23 25 30 31 35 37 37 37 38 36 37 39 38 41 41 41 41 40 40 40 39 40 43 39 37 38 38 37 37 35 35
49 49 50 45 39 37 35 33 33 35 35 32 34 35 33 34 33 33 33 36 32 27 26 32 34 38 40 41 41 41 41 41 38 38 39 38 42 39 40 40 40 39 38 37 35 36 39 36 37 38 38 38 40 37
46 49 40 41 34 33 33 36 35 37 32 30 33 34 30 29 29 30 34 29 28 33 34 38 41 41 41 40 42 42 44 43 43 41 44 41 37 36 37 38 37 34 35 35 36 35 35 36 37 37 38 39 43 41
47 42 36 34 32 32 30 37 31 30 28 28 31 31 27 28 31 35 28 30 32 38 41 40 42 42 41 44 44 43 44 42 42 42 42 40 38 39 38 38 38 36 34 36 39 39 38 42 41 40 41 41 40 40
45 36 33 31 30 28 33 31 33 31 29 30 29 24 25 28 31 26 26 29 39 38 38 39 41 40 40 39 41 43 45 44 41 39 38 37 36 36 37 37 37 37 38 40 40 39 39 39 41 39 39 39 39 38
31 30 30 29 32 28 29 29 29 28 27 27 25 24 27 30 25 25 27 28 33 36 38 37 36 38 38 39 37 38 42 40 37 36 36 37 36 35 35 35 35 36 39 39 37 37 38 39 39 38 37 37 37 38
23 29 27 28 28 27 27 24 26 27 28 28 28 28 26 26 24 23 27 30 33 34 34 34 34 34 35 36 35 34 37 38 37 34 35 36 35 33 32 32 35 34 40 39 37 36 36 37 36 36 36 36 37 38
24 27 29 33 31 31 28 30 30 28 27 25 25 25 24 18 21 28 33 34 31 32 35 34 36 35 31 30 35 37 37 37 36 36 37 36 36 36 37 37 36 38 40 39 38 37 35 34 34 34 34 35 36 37
29 31 28 30 30 31 27 29 29 28 28 29 29 24 22 24 26 33 35 35 33 34 32 32 35 35 35 35 35 35 36 36 37 38 36 35 35 36 39 41 41 41 40 39 38 38 37 36 35 34 34 34 34 37
30 31 31 28 26 28 26 30 30 31 33 30 29 28 29 33 36 34 33 30 33 31 27 27 28 34 34 34 34 34 34 34 31 27 28 25 32 35 37 37 39 38 39 38 40 40 38 37 36 35 35 34 35 36
26 32 28 28 24 26 31 32 32 34 34 33 34 33 33 33 29 28 30 30 29 31 32 31 28 31 28 31 31 31 33 34 33 31 28 29 29 33 37 37 37 37 38 37 36 36 39 38 38 35 34 34 34 34
31 31 28 28 26 30 33 33 32 33 32 33 33 34 36 32 31 31 31 29 29 28 31 30 29 32 32 31 30 29 28 32 33 34 34 33 32 33 37 38 38 38 37 36 34 34 34 34 34 33 33 32 32 33
30 29 29 26 25 30 32 31 30 30 29 29 29 29 29 30 29 31 30 31 30 30 34 33 30 29 32 32 32 33 37 32 32 33 34 32 31 33 36 37 38 38 35 34 34 33 33 33 32 33 32 32 32 32
32 32 29 29 26 27 29 29 28 27 28 27 28 29 29 30 29 31 27 27 30 31 30 32 33 34 36 34 31 31 34 31 35 39 39 39 39 38 35 35 37 37 35 33 33 33 32 33 32 33 33 33 32 32
MSLP
1010.81 1011.26 1012.02 1012.58 1013.25 1013.77 1014.22 1014.62 1014.86 1015.13 1015.24 1015.08 1015.03 1014.92 1014.65 1014.64 1014.44 1014.46 1015.18 1014.81 1015.28 1016.24 1016.58 1016.19 1016.19 1016.23 1016.27 1016.81 1017.70 1018.60 1019.17 1019.49 1020.12 1020.96 1021.68 1021.87 1021.65 1021.12 1021.12 1021.03 1021.36 1022.21 1023.33 1023.79 1023.98 1023.41 1021.06 1019.20 1018.93 1019.23 1019.83 1019.36 1019.15 1019.07
1009.81 1010.45 1011.22 1011.90 1012.60 1013.22 1013.75 1014.20 1014.63 1014.88 1015.18 1015.19 1015.01 1015.01 1014.67 1014.65 1014.54 1014.32 1015.46 1015.08 1014.93 1016.22 1017.45 1017.02 1017.10 1017.10 1017.05 1017.17 1017.29 1018.09 1018.52 1018.86 1019.32 1020.54 1021.35 1021.83 1022.03 1021.66 1021.69 1021.47 1020.62 1021.15 1020.72 1021.10 1021.67 1020.88 1019.46 1018.84 1019.09 1019.08 1019.19 1019.22 1019.11 1019.06
1008.75 1009.53 1010.34 1011.25 1012.10 1012.79 1013.27 1013.86 1014.21 1014.80 1015.00 1015.17 1015.02 1015.04 1014.85 1014.81 1014.60 1014.39 1015.66 1015.98 1015.71 1016.90 1017.78 1017.66 1017.72 1017.79 1017.43 1017.44 1017.41 1017.83 1018.58 1018.50 1019.03 1019.29 1020.60 1021.68 1022.06 1021.83 1022.00 1021.43 1020.57 1019.88 1019.59 1020.10 1020.14 1019.31 1019.09 1019.13 1018.90 1018.90 1018.96 1018.98 1018.84 1018.69
1007.79 1008.61 1009.54 1010.54 1011.53 1012.36 1012.94 1013.52 1014.05 1014.62 1014.93 1015.04 1015.09 1015.06 1014.89 1014.93 1014.87 1014.72 1015.92 1016.48 1016.43 1017.03 1017.79 1018.32 1017.82 1018.26 1018.14 1017.85 1017.70 1017.69 1018.07 1018.40 1019.02 1019.72 1020.84 1021.63 1022.14 1021.46 1021.65 1021.04 1020.70 1019.73 1019.42 1019.37 1019.49 1019.15 1018.87 1018.78 1018.80 1018.92 1018.93 1018.77 1018.63 1018.53
1006.78 1007.75 1008.82 1009.92 1010.94 1011.85 1012.64 1013.18 1013.88 1014.47 1014.88 1014.95 1015.10 1015.17 1014.92 1015.11 1015.41 1015.35 1016.08 1016.89 1016.86 1017.17 1018.07 1018.91 1018.75 1019.07 1018.79 1018.63 1018.47 1018.36 1018.58 1019.05 1019.92 1020.72 1021.53 1021.90 1021.59 1021.60 1021.50 1021.23 1020.30 1018.77 1018.28 1018.87 1018.99 1019.07 1019.13 1019.31 1019.22 1018.98 1019.04 1019.10 1018.96 1018.67
1005.74 1006.79 1008.08 1009.36 1010.41 1011.48 1012.38 1012.98 1013.64 1014.33 1014.93 1014.90 1015.08 1015.35 1015.23 1015.22 1015.64 1015.88 1017.00 1017.28 1017.06 1016.92 1018.07 1019.66 1020.02 1019.86 1019.59 1019.35 1019.37 1019.42 1019.57 1019.99 1020.40 1021.04 1021.46 1021.27 1020.93 1021.28 1021.83 1021.39 1018.68 1017.91 1017.83 1017.89 1018.28 1018.46 1019.00 1019.01 1018.93 1018.99 1019.13 1019.07 1018.86 1018.67
1004.56 1005.80 1007.36 1008.71 1009.92 1011.08 1012.18 1012.96 1013.53 1014.08 1014.73 1015.03 1015.06 1015.45 1015.37 1015.35 1015.91 1016.77 1017.66 1017.87 1017.29 1017.01 1018.01 1020.31 1020.92 1020.86 1020.37 1020.33 1020.59 1020.77 1020.68 1021.11 1021.47 1021.77 1021.89 1021.87 1021.51 1021.41 1021.65 1020.64 1018.79 1018.24 1017.92 1017.89 1018.05 1018.34 1018.83 1018.96 1019.22 1019.05 1019.00 1018.88 1018.70 1018.47
1003.49 1005.01 1006.67 1008.14 1009.24 1010.55 1011.93 1012.64 1013.50 1014.03 1014.74 1015.06 1015.18 1015.55 1015.60 1015.83 1016.36 1017.01 1017.51 1017.27 1017.15 1018.21 1018.81 1020.61 1021.47 1021.37 1020.83 1021.12 1021.60 1021.40 1021.79 1021.97 1022.23 1022.48 1022.47 1022.41 1022.27 1022.04 1021.24 1019.63 1018.63 1018.29 1018.05 1018.03 1018.18 1018.28 1018.71 1018.98 1018.95 1018.99 1018.92 1018.87 1018.88 1018.63
1002.71 1004.44 1006.06 1007.63 1008.81 1010.23 1011.63 1012.36 1013.27 1014.03 1014.50 1014.87 1015.31 1015.71 1016.10 1016.49 1017.29 1017.78 1017.57 1017.55 1017.50 1018.65 1020.20 1021.28 1021.40 1021.51 1021.02 1021.37 1021.84 1022.11 1022.32 1022.96 1022.91 1023.08 1023.08 1023.02 1022.72 1021.73 1019.74 1019.19 1018.65 1018.20 1018.09 1018.20 1018.16 1018.37 1018.62 1018.84 1018.97 1019.06 1018.94 1018.83 1018.82 1018.59
1002.13 1003.94 1005.61 1007.11 1008.60 1010.01 1011.33 1012.29 1013.17 1013.89 1014.48 1015.09 1015.69 1016.29 1017.55 1017.82 1017.57 1017.59 1017.99 1018.51 1018.69 1019.42 1020.18 1021.13 1021.30 1021.76 1021.55 1021.97 1022.64 1023.13 1023.55 1024.19 1024.18 1023.74 1023.40 1023.29 1022.07 1020.11 1019.02 1018.60 1018.31 1018.04 1017.80 1017.72 1018.11 1018.56 1018.73 1018.92 1018.93 1018.83 1018.74 1018.55 1018.48 1018.43
1001.67 1003.63 1005.22 1006.83 1008.46 1009.88 1010.98 1012.14 1012.90 1013.91 1014.83 1015.32 1015.95 1017.32 1018.07 1017.72 1018.08 1018.53 1019.21 1019.74 1020.30 1020.77 1020.56 1020.84 1020.94 1021.49 1021.49 1021.92 1022.79 1023.27 1023.95 1024.56 1024.83 1024.40 1024.01 1023.41 1022.32 1019.86 1018.32 1017.82 1017.43 1017.40 1017.56 1017.93 1017.88 1018.10 1018.27 1018.46 1018.49 1018.39 1018.19 1017.90 1017.84 1017.90
1001.18 1003.13 1004.94 1006.54 1008.17 1009.64 1010.85 1011.83 1012.52 1013.28 1014.20 1014.44 1015.32 1016.92 1017.97 1018.54 1019.13 1019.93 1020.24 1020.34 1020.56 1020.43 1020.37 1020.57 1020.69 1020.89 1021.55 1021.59 1022.67 1023.66 1024.22 1024.87 1024.80 1024.16 1024.23 1023.33 1020.89 1018.90 1018.06 1017.33 1017.06 1017.10 1017.31 1017.36 1017.33 1017.51 1017.55 1017.65 1017.59 1017.59 1017.48 1017.32 1017.38 1017.40
1000.92 1002.84 1004.79 1006.42 1008.16 1009.67 1010.86 1011.79 1012.09 1012.71 1013.52 1014.60 1015.87 1017.41 1018.46 1019.70 1020.17 1020.21 1020.40 1020.46 1020.53 1019.98 1019.91 1020.32 1020.85 1021.17 1021.58 1022.23 1023.11 1023.73 1024.25 1024.81 1024.25 1024.10 1023.29 1021.69 1019.55 1018.50 1017.92 1017.26 1017.02 1016.78 1016.85 1016.99 1017.10 1017.10 1017.03 1017.10 1017.10 1017.11 1017.01 1016.94 1016.93 1016.92
1000.78 1002.85 1004.75 1006.54 1008.32 1009.60 1010.85 1011.42 1011.87 1012.36 1013.48 1015.25 1016.85 1018.57 1018.69 1019.54 1019.46 1018.98 1018.91 1018.99 1019.15 1019.35 1019.73 1020.32 1021.08 1021.40 1021.79 1022.58 1023.01 1023.77 1023.93 1023.89 1024.18 1023.96 1022.53 1020.19 1018.84 1018.24 1017.59 1017.39 1017.22 1017.09 1017.02 1017.03 1016.98 1016.80 1016.79 1016.79 1016.71 1016.62 1016.52 1016.34 1016.40 1016.45
1000.89 1003.25 1005.08 1007.40 1008.47 1009.60 1010.67 1011.38 1011.75 1012.45 1013.89 1015.68 1016.61 1017.81 1018.35 1017.92 1017.81 1017.75 1018.03 1018.35 1018.66 1018.99 1019.56 1020.61 1021.40 1021.72 1022.31 1022.98 1023.25 1023.44 1023.78 1023.73 1023.21 1022.10 1020.51 1019.18 1018.43 1017.88 1017.49 1017.25 1017.10 1016.95 1016.84 1016.74 1016.54 1016.55 1016.46 1016.41 1016.37 1016.22 1016.06 1015.88 1015.90 1015.96
1001.83 1004.36 1006.09 1007.44 1008.45 1009.60 1010.57 1011.51 1012.12 1012.79 1014.62 1015.81 1016.67 1016.96 1017.37 1017.55 1017.57 1017.72 1018.10 1018.46 1018.32 1019.03 1019.86 1020.55 1021.59 1022.12 1022.51 1022.82 1023.44 1023.19 1023.07 1022.20 1020.96 1020.03 1018.76 1018.16 1017.65 1017.32 1017.17 1016.98 1016.81 1016.65 1016.57 1016.41 1016.29 1016.25 1016.15 1016.10 1015.98 1015.75 1015.53 1015.51 1015.46 1015.44
1002.11 1003.72 1005.85 1007.69 1008.88 1009.83 1010.66 1011.40 1012.63 1014.50 1015.52 1016.37 1016.63 1016.43 1016.43 1016.57 1016.86 1017.31 1017.57 1018.02 1017.86 1018.62 1019.58 1020.18 1021.22 1021.56 1022.15 1022.75 1022.81 1022.17 1021.12 1019.79 1019.00 1018.77 1018.18 1017.51 1017.33 1017.14 1016.87 1016.60 1016.49 1016.35 1016.23 1016.11 1015.95 1015.81 1015.65 1015.44 1015.33 1015.43 1015.50 1015.20 1015.04 1014.95
1002.00 1003.98 1005.58 1007.21 1008.46 1009.75 1011.28 1012.35 1013.96 1015.07 1016.02 1016.26 1016.44 1016.30 1016.21 1016.05 1016.24 1016.62 1016.71 1017.22 1017.79 1018.41 1018.92 1019.53 1020.26 1021.08 1021.05 1020.92 1020.48 1019.52 1018.97 1018.48 1018.21 1018.01 1017.62 1017.28 1016.86 1016.60 1016.43 1016.39 1016.13 1015.94 1015.85 1015.70 1015.54 1015.37 1015.32 1015.30 1015.27 1015.10 1014.89 1014.68 1014.61 1014.64
1001.88 1003.82 1005.69 1006.96 1007.76 1009.09 1012.00 1013.72 1014.25 1015.28 1015.74 1015.98 1016.23 1016.00 1016.00 1016.21 1015.87 1015.76 1016.26 1016.95 1017.36 1017.88 1018.58 1018.88 1019.30 1019.41 1018.97 1018.46 1018.20 1018.11 1017.90 1017.93 1017.65 1017.34 1017.09 1016.70 1016.53 1016.27 1016.06 1015.90 1015.64 1015.49 1015.45 1015.33 1015.19 1015.09 1014.93 1014.74 1014.60 1014.45 1014.40 1014.35 1014.37 1014.33
1002.83 1004.48 1005.90 1006.82 1007.28 1009.83 1012.49 1014.11 1014.57 1014.91 1015.51 1015.69 1015.79 1016.01 1016.27 1016.23 1016.09 1016.18 1016.77 1017.24 1017.69 1018.27 1018.47 1018.50 1018.11 1017.54 1017.48 1017.23 1016.94 1016.91 1016.91 1016.85 1016.95 1016.87 1016.61 1016.42 1015.95 1015.67 1015.55 1015.36 1015.18 1015.05 1014.98 1014.89 1014.76 1014.63 1014.53 1014.40 1014.19 1014.00 1013.91 1013.86 1013.80 1013.79
1004.14 1005.54 1006.16 1006.87 1009.05 1010.64 1012.76 1014.11 1014.83 1014.93 1015.27 1015.61 1015.69 1015.85 1016.37 1016.26 1016.34 1016.68 1017.09 1017.30 1017.82 1017.89 1017.43 1016.89 1016.76 1016.34 1016.11 1016.20 1016.07 1016.18 1016.10 1016.09 1016.17 1016.06 1015.62 1015.45 1015.26 1015.14 1014.94 1014.71 1014.63 1014.59 1014.63 1014.58 1014.59 1014.43 1014.36 1014.28 1014.11 1013.82 1013.65 1013.43 1013.07 1013.00
1004.28 1005.59 1007.19 1008.34 1010.44 1012.09 1013.25 1013.97 1014.31 1014.77 1015.44 1015.69 1015.92 1016.00 1016.36 1016.57 1016.74 1016.78 1016.83 1017.33 1017.02 1016.21 1015.89 1015.76 1015.58 1015.66 1015.61 1015.48 1015.16 1015.20 1015.18 1015.08 1014.94 1014.79 1014.65 1014.61 1014.59 1014.69 1014.45 1014.22 1014.27 1014.30 1014.31 1014.29 1014.21 1014.21 1014.24 1014.16 1013.89 1013.65 1013.46 1013.14 1012.77 1012.54
1004.97 1006.51 1008.76 1010.17 1011.40 1012.87 1014.30 1014.15 1014.60 1015.19 1015.72 1016.11 1016.14 1016.50 1016.70 1016.66 1016.41 1016.19 1016.58 1016.18 1015.16 1014.10 1014.19 1014.40 1014.30 1014.49 1014.74 1014.63 1014.54 1014.49 1014.26 1014.27 1014.14 1013.93 1013.79 1013.72 1013.67 1013.77 1013.83 1013.85 1013.88 1013.99 1014.09 1013.96 1013.85 1013.83 1013.76 1013.69 1013.55 1013.39 1013.09 1012.75 1012.48 1012.17
1006.25 1008.54 1010.05 1011.05 1012.12 1013.35 1013.96 1014.24 1014.69 1015.17 1015.70 1016.11 1016.32 1016.62 1016.59 1016.50 1015.97 1016.24 1016.06 1014.63 1013.41 1013.42 1013.49 1013.42 1013.54 1013.66 1013.78 1013.75 1013.78 1013.56 1013.34 1013.31 1013.30 1013.16 1013.14 1013.29 1013.55 1013.57 1013.62 1013.75 1013.75 1013.79 1013.71 1013.56 1013.61 1013.57 1013.52 1013.45 1013.31 1013.16 1012.94 1012.53 1012.24 1012.19
1007.75 1010.13 1010.78 1011.69 1012.28 1013.01 1013.51 1013.99 1014.24 1014.79 1015.21 1015.51 1015.73 1015.91 1015.97 1015.72 1016.03 1016.14 1015.53 1013.52 1013.02 1012.95 1012.82 1012.88 1013.03 1013.05 1013.25 1012.88 1012.84 1012.71 1012.47 1012.68 1012.92 1013.10 1013.07 1013.14 1013.37 1013.51 1013.68 1013.82 1013.84 1013.70 1013.51 1013.55 1013.65 1013.66 1013.53 1013.29 1013.05 1012.88 1012.70 1012.48 1012.06 1011.85
1008.86 1010.48 1010.85 1011.18 1011.81 1011.96 1012.37 1012.89 1013.29 1013.67 1014.11 1014.62 1014.92 1015.03 1015.20 1015.67 1015.90 1015.67 1014.21 1012.83 1012.52 1012.42 1012.40 1012.44 1012.62 1012.91 1013.15 1012.80 1012.71 1012.73 1012.56 1012.59 1012.83 1013.04 1013.18 1013.15 1013.36 1013.59 1013.79 1013.87 1013.85 1013.78 1013.63 1013.71 1013.74 1013.62 1013.44 1013.22 1013.01 1012.69 1012.40 1012.10 1011.79 1011.52
1009.29 1010.10 1010.43 1010.23 1010.51 1010.92 1011.58 1011.93 1012.27 1012.71 1013.23 1013.57 1013.88 1014.65 1014.91 1015.19 1014.94 1013.67 1012.25 1011.56 1011.68 1011.37 1011.50 1011.59 1011.89 1012.17 1012.57 1012.70 1012.76 1012.53 1012.48 1012.58 1012.71 1012.82 1012.96 1013.09 1013.21 1013.31 1013.31 1013.48 1013.61 1013.72 1013.62 1013.59 1013.57 1013.54 1013.42 1013.26 1012.98 1012.61 1012.25 1011.86 1011.52 1011.31
1008.94 1009.38 1009.83 1010.23 1010.36 1010.43 1010.87 1011.28 1011.68 1011.98 1012.14 1012.21 1012.87 1013.53 1013.59 1013.53 1012.80 1011.78 1011.17 1010.69 1010.62 1010.91 1011.40 1011.63 1011.78 1011.95 1012.34 1012.44 1012.45 1012.53 1012.62 1012.67 1012.63 1012.67 1012.80 1012.98 1013.11 1013.24 1013.26 1013.39 1013.46 1013.56 1013.52 1013.46 1013.33 1013.21 1013.13 1013.00 1012.77 1012.47 1012.09 1011.75 1011.50 1011.27
1008.75 1009.00 1009.47 1010.06 1010.28 1010.63 1010.71 1010.65 1010.68 1010.53 1010.46 1011.04 1011.53 1011.70 1011.74 1011.36 1010.85 1010.89 1010.96 1010.74 1010.90 1011.53 1011.79 1011.86 1011.93 1012.09 1012.28 1012.29 1012.42 1012.57 1012.70 1012.83 1013.03 1013.14 1013.20 1013.49 1013.64 1013.62 1013.46 1013.44 1013.52 1013.59 1013.47 1013.40 1013.24 1013.10 1012.91 1012.72 1012.55 1012.34 1012.06 1011.74 1011.48 1011.32
1008.40 1008.49 1009.24 1009.88 1010.29 1010.08 1009.65 1009.37 1009.43 1009.15 1009.32 1009.62 1009.76 1010.11 1010.21 1010.22 1009.96 1010.42 1010.69 1011.29 1011.49 1011.47 1011.25 1011.38 1011.70 1012.01 1012.11 1012.40 1012.61 1012.80 1012.76 1012.84 1012.90 1013.10 1013.24 1013.40 1013.51 1013.45 1013.30 1013.30 1013.47 1013.47 1013.42 1013.37 1013.24 1013.10 1012.84 1012.64 1012.50 1012.35 1012.16 1011.94 1011.72 1011.56
1007.85 1008.37 1008.82 1009.23 1009.50 1009.08 1008.88 1008.90 1008.92 1009.05 1009.25 1009.43 1009.50 1009.84 1009.71 1009.81 1009.88 1009.85 1010.21 1010.48 1010.78 1011.02 1011.28 1011.44 1011.42 1011.46 1011.76 1012.04 1012.35 1012.67 1012.93 1012.94 1012.81 1012.94 1013.16 1013.34 1013.40 1013.38 1013.26 1013.24 1013.38 1013.36 1013.36 1013.40 1013.37 1013.16 1013.01 1012.83 1012.71 1012.58 1012.43 1012.30 1012.14 1012.03
1007.51 1008.02 1008.56 1008.96 1009.07 1008.80 1008.56 1008.99 1009.22 1009.47 1009.65 1009.98 1009.98 1009.74 1009.78 1009.62 1010.07 1009.85 1009.56 1009.93 1010.50 1010.74 1010.59 1010.81 1010.89 1011.01 1011.09 1011.46 1011.76 1011.89 1011.82 1012.42 1012.75 1012.98 1013.14 1013.30 1013.41 1013.43 1013.40 1013.32 1013.27 1013.24 1013.31 1013.37 1013.35 1013.25 1013.14 1013.01 1012.87 1012.73 1012.67 1012.56 1012.53 1012.49
1007.51 1007.81 1008.22 1008.76 1009.01 1008.94 1009.11 1009.36 1009.75 1009.97 1009.94 1009.74 1009.57 1009.50 1009.33 1009.29 1009.76 1009.44 1009.59 1009.74 1009.98 1009.99 1010.18 1010.17 1010.18 1010.43 1010.82 1011.29 1011.75 1011.96 1012.13 1012.42 1012.68 1012.91 1013.02 1013.04 1013.13 1013.16 1013.16 1013.18 1013.15 1013.16 1013.21 1013.38 1013.36 1013.30 1013.21 1013.08 1012.99 1012.92 1012.80 1012.72 1012.72 1012.73
Wind_Speed
24 23 21 20 19 15 14 12 10 7 5 5 7 9 11 11 10 3 2 3 3 4 3 6 5 2 3 3 5 4 5 2 3 2 4 4 3 3 2 4 7 7 7 5 2 1 7 5 1 1 5 4 3 4
26 24 22 19 18 17 15 14 11 10 7 5 6 8 10 11 11 3 2 3 2 6 3 3 4 4 4 1 5 2 5 4 5 4 0 3 1 2 4 3 0 1 8 6 10 8 5 3 7 1 2 3 5 5
27 25 23 21 20 18 17 16 13 11 8 6 5 6 10 11 12 5 3 3 4 5 4 4 3 3 6 4 0 5 2 2 3 4 4 2 1 4 3 6 3 4 2 2 4 3 4 5 3 2 1 3 6 5
28 26 24 23 21 19 18 17 16 13 10 8 7 6 8 10 11 7 5 3 3 3 5 3 1 4 5 5 4 2 4 3 4 4 3 3 3 3 3 4 4 6 2 3 4 3 2 4 4 4 7 8 9 8
29 27 26 24 22 20 19 19 16 14 12 10 8 7 7 8 9 7 4 3 2 5 5 1 4 5 5 5 4 4 3 3 2 2 3 3 2 2 2 2 5 6 7 5 6 5 5 4 5 3 6 6 8 7
31 30 27 25 23 22 20 19 18 15 12 11 9 7 6 6 7 3 5 4 4 3 6 2 2 4 6 6 7 6 3 2 3 4 3 1 1 4 3 4 6 4 4 6 5 3 5 2 4 5 4 6 7 7
33 32 30 28 26 23 20 19 18 18 15 12 12 10 6 5 5 4 4 2 6 1 5 3 3 4 3 4 4 3 5 3 3 1 2 2 1 4 3 5 3 2 6 4 5 6 5 3 3 6 5 7 8 8
35 34 32 30 28 26 23 22 20 18 17 14 13 9 13 15 10 5 3 5 4 5 4 5 2 2 1 1 2 1 2 3 4 0 2 1 3 2 5 6 6 5 2 6 5 5 3 3 4 5 4 5 7 7
36 35 34 32 30 28 25 24 22 20 18 16 13 11 4 5 4 1 3 6 2 5 4 3 5 5 1 1 2 3 2 2 2 1 2 3 2 6 7 6 4 6 3 5 3 3 3 3 6 6 5 6 5 7
38 36 35 32 31 29 26 24 23 20 17 15 4 4 3 2 1 3 4 4 5 4 4 2 1 1 4 1 2 3 2 1 1 3 2 2 6 7 11 7 6 5 6 6 3 3 3 5 6 6 6 5 5 6
39 37 36 34 31 29 28 26 24 20 11 2 3 3 1 2 3 3 2 4 1 3 2 3 3 4 3 4 2 1 3 1 2 4 3 3 5 5 6 7 8 9 7 6 5 5 5 6 7 7 8 6 6 6
40 39 37 35 32 30 29 28 27 8 5 6 8 6 3 3 4 6 1 2 2 5 2 4 2 4 1 3 4 2 3 3 3 2 3 4 6 9 7 5 4 4 7 7 6 8 8 8 8 7 7 7 5 6
41 39 37 36 33 32 30 28 19 18 15 4 5 5 5 1 6 6 6 3 2 4 3 3 3 3 4 3 3 3 2 4 1 2 4 6 6 7 7 3 4 6 6 6 7 6 7 8 7 6 7 6 6 6
42 39 37 35 34 32 31 27 25 10 5 4 5 5 5 2 5 5 4 5 4 5 6 4 3 3 2 2 3 4 4 4 1 2 6 5 6 6 3 3 4 6 6 5 6 6 7 8 8 8 7 6 4 6
41 38 37 33 34 33 30 20 12 3 4 4 5 6 5 4 3 4 4 5 2 5 6 4 3 3 1 3 2 2 2 2 5 6 5 4 2 1 1 2 3 5 5 5 5 6 7 7 7 8 7 7 5 5
40 35 19 35 34 31 25 16 3 3 4 4 3 5 1 4 2 3 3 4 3 7 4 3 3 3 3 4 3 6 6 7 5 5 4 2 4 5 5 6 6 5 6 7 6 5 6 7 7 7 5 6 7 6
30 7 37 34 32 28 15 5 5 5 4 3 0 0 3 3 5 4 5 4 5 8 4 4 7 9 2 3 3 5 7 5 5 4 4 3 3 7 6 6 6 6 7 7 6 7 7 7 6 4 6 7 7 7
12 29 40 37 26 15 4 5 4 4 2 2 3 3 2 2 3 4 4 4 5 6 3 4 5 3 6 7 5 5 5 4 4 4 4 5 6 7 4 5 6 7 7 8 7 6 5 6 6 6 7 7 6 6
28 28 39 34 13 7 5 2 3 4 2 3 2 2 3 2 1 4 5 5 3 4 3 2 3 5 5 5 4 4 3 4 4 5 5 6 5 6 7 7 7 7 7 7 6 5 5 7 6 5 4 4 4 4
41 40 35 20 8 6 6 3 2 3 4 3 2 2 3 3 3 3 3 3 4 3 1 3 5 4 4 3 4 4 3 3 2 7 8 4 6 7 7 7 5 6 5 6 6 7 4 4 4 4 4 5 4 6
33 22 18 8 5 6 5 4 3 2 2 2 3 4 2 2 3 3 3 3 2 4 4 4 4 4 4 4 4 4 5 5 6 7 9 7 7 5 5 5 6 4 3 4 4 5 5 4 4 4 4 5 5 5
13 17 5 6 6 4 5 1 4 3 3 2 3 2 1 2 2 3 3 3 4 5 5 6 8 8 7 8 9 8 9 9 8 6 6 6 5 4 5 5 3 3 4 4 3 2 2 3 4 4 6 8 9 5
20 8 5 4 6 5 3 1 5 2 4 3 2 3 2 1 3 3 2 4 5 5 6 6 9 7 9 11 10 10 9 9 8 8 8 7 5 4 3 3 2 2 3 4 1 1 1 7 8 6 7 6 5 3
10 6 4 4 4 4 4 3 3 4 3 3 4 3 3 4 1 2 4 5 6 3 4 7 6 7 5 7 8 9 9 7 7 4 2 3 1 2 1 2 2 2 3 2 2 3 3 4 8 5 7 8 5 4
8 3 5 5 3 6 5 6 4 4 4 4 4 3 4 3 3 2 4 5 3 5 6 5 5 6 7 7 4 4 4 4 4 3 1 2 1 2 3 2 2 4 3 3 3 4 5 5 5 6 7 7 8 7
6 3 4 4 4 5 5 6 6 6 4 4 5 4 2 3 3 6 5 4 5 5 5 5 5 3 3 4 3 3 3 2 3 2 1 2 2 2 1 1 3 3 2 3 3 5 7 7 8 9 8 8 12 8
5 4 2 2 4 5 4 3 3 4 5 6 4 4 4 4 7 6 4 5 4 4 4 4 4 4 4 3 2 2 3 3 3 3 2 1 1 2 2 0 2 2 3 3 3 3 6 7 8 8 9 7 6 5
3 5 9 6 3 3 5 4 5 6 5 4 6 6 9 9 7 5 5 2 4 5 3 2 2 3 2 2 2 3 1 1 1 2 2 2 0 2 2 3 3 7 4 4 4 3 3 5 6 7 8 6 5 3
2 4 5 5 4 3 4 5 6 5 5 5 7 5 5 5 3 3 3 3 3 4 3 2 2 2 1 1 1 2 2 2 2 1 3 2 2 1 1 2 2 3 2 3 7 5 6 4 5 5 7 5 4 3
2 4 4 5 6 6 5 5 4 5 4 5 5 1 1 2 3 1 3 3 4 6 6 4 3 5 4 4 3 3 3 3 3 4 3 3 3 2 2 2 2 2 2 2 4 4 7 3 4 3 4 4 3 1
5 4 3 4 5 4 5 3 1 1 1 3 3 6 8 2 1 2 5 4 3 2 4 4 3 5 5 5 4 5 3 2 5 5 4 2 2 2 2 2 2 2 2 2 3 4 4 3 3 4 4 4 4 2
4 5 5 4 3 3 2 4 4 4 3 3 3 2 1 2 2 4 3 4 4 5 7 6 5 4 4 3 3 3 6 5 5 4 5 3 1 2 3 2 2 1 2 2 3 3 3 3 3 4 4 4 3 1
3 3 2 3 2 2 1 4 3 3 3 4 4 5 5 5 7 3 2 1 3 4 5 5 4 4 7 6 6 5 6 5 7 8 5 2 4 5 3 3 1 1 3 2 2 2 3 4 3 4 4 4 2 1
Wind_Direction
197 192 195 194 194 177 183 185 179 167 143 96 59 35 25 14 13 68 225 47 108 102 343 19 18 75 46 96 143 191 72 334 60 96 125 223 140 254 24 151 172 165 144 207 128 105 281 206 240 353 221 268 270 283
195 191 192 190 187 173 182 182 181 172 164 118 78 45 32 14 4 59 63 329 66 87 161 45 87 44 52 61 130 124 168 158 182 100 134 89 19 53 152 255 132 220 186 186 171 210 220 210 111 118 219 246 279 277
191 190 186 184 173 177 178 174 168 160 153 151 114 65 37 19 4 83 114 345 38 94 11 48 31 8 25 18 340 123 341 188 69 175 154 168 188 119 171 239 229 301 122 201 65 257 142 122 172 145 261 286 288 280
189 185 181 173 172 175 175 173 168 164 156 146 139 99 60 37 31 67 84 317 74 112 113 267 65 30 325 360 40 52 126 65 107 76 104 128 150 143 217 230 173 214 56 208 259 312 72 6 21 331 358 347 336 319
186 180 171 170 170 170 172 170 169 166 163 153 137 129 83 51 40 80 81 33 65 125 157 169 70 20 359 357 67 42 70 96 98 67 88 208 226 79 304 37 239 193 210 164 229 195 167 241 294 342 350 321 308 307
182 171 167 166 164 164 166 163 160 158 154 144 136 140 109 57 29 65 50 343 354 104 96 78 299 35 4 37 41 34 28 44 80 131 210 227 247 111 120 239 255 226 102 156 189 158 134 201 21 4 323 317 314 295
174 165 163 161 160 159 162 158 157 155 151 143 133 134 119 93 76 85 140 226 311 15 87 65 13 339 2 25 13 18 16 22 86 348 23 168 260 105 162 233 278 127 170 150 84 99 31 29 299 325 334 316 320 312
165 161 160 161 158 157 160 157 155 150 151 142 131 124 99 99 107 49 350 335 13 75 53 113 217 47 250 133 42 22 55 34 10 75 346 43 5 44 265 252 272 316 262 97 94 89 166 251 314 319 303 320 325 316
161 160 158 159 155 156 160 159 155 151 146 142 136 125 68 34 57 251 315 337 35 105 107 87 138 202 176 120 120 23 72 73 266 85 246 76 254 231 230 232 270 288 172 147 85 23 334 328 310 299 294 315 304 300
158 157 156 155 154 155 158 154 151 147 143 132 92 74 48 321 187 11 17 31 18 351 45 106 89 108 95 90 11 86 23 53 68 262 73 117 258 287 269 243 240 254 185 154 136 308 298 301 286 282 273 277 277 288
156 156 153 152 153 155 154 154 146 138 117 92 96 85 139 350 51 39 72 86 28 16 142 194 140 134 327 113 139 63 162 110 73 268 123 271 275 253 287 245 230 235 237 233 185 210 240 243 266 274 278 262 272 276
153 153 152 151 153 154 154 151 146 133 162 164 120 107 92 58 38 80 327 55 120 206 177 132 185 135 330 86 95 334 119 63 217 195 70 262 253 268 267 244 198 180 178 201 218 229 241 248 258 262 262 269 270 260
151 150 150 149 152 155 153 150 156 136 118 64 61 75 87 349 63 160 187 263 198 183 151 118 111 115 31 40 81 96 147 221 49 70 226 232 262 294 294 217 202 204 214 229 254 260 255 266 275 257 269 262 261 265
148 146 148 149 154 152 153 160 148 120 94 91 120 121 159 181 228 185 183 172 200 130 127 120 80 109 101 73 129 153 211 82 331 263 244 256 256 291 333 4 20 326 312 287 278 272 268 271 271 268 260 253 247 265
141 145 144 154 152 152 156 156 129 81 90 113 105 158 179 203 169 154 156 96 86 126 113 89 57 97 107 140 203 109 92 230 215 226 227 223 244 209 35 327 284 273 272 274 262 274 281 286 285 282 269 251 244 261
136 137 152 151 149 147 145 139 96 78 68 85 63 102 149 98 154 114 122 136 149 126 99 100 129 166 203 157 114 205 154 215 239 213 236 242 324 336 307 308 300 281 273 276 284 274 278 281 277 270 268 248 245 244
137 123 148 146 142 136 127 87 69 55 91 87 327 203 139 134 167 167 134 182 153 141 174 129 187 199 109 112 217 192 208 216 220 241 235 266 286 276 267 270 289 294 288 282 274 269 263 260 271 286 280 268 253 253
128 142 139 137 134 109 49 53 87 92 110 165 142 211 169 183 164 159 156 149 129 173 122 196 144 173 188 179 213 228 229 243 226 237 261 276 277 285 279 270 276 275 279 278 274 270 270 276 272 259 259 262 272 265
141 138 136 139 125 103 97 75 84 113 145 135 218 254 142 222 16 108 120 142 117 132 164 136 194 192 204 202 190 217 227 217 241 261 259 274 265 270 281 274 275 280 274 273 281 271 256 246 236 246 246 259 245 245
133 134 137 123 84 87 91 69 61 97 163 199 138 140 146 180 161 108 111 128 128 126 218 206 211 207 187 231 219 214 225 244 283 296 285 262 261 263 256 254 254 256 269 277 277 280 289 295 286 276 264 246 245 248
126 134 120 77 61 61 91 118 105 141 125 143 178 125 149 48 94 135 171 165 137 206 224 217 222 256 258 251 241 248 256 246 246 242 265 272 262 242 253 252 257 263 259 274 272 282 299 282 292 304 302 288 262 245
115 105 78 51 78 71 81 351 119 128 100 170 108 96 81 126 179 199 160 161 219 215 201 234 248 252 257 250 252 244 252 249 255 261 268 249 260 256 256 248 255 261 275 263 262 279 320 311 312 307 306 299 290 261
95 63 55 61 82 66 86 11 88 101 123 166 60 99 286 239 224 118 208 221 234 227 202 213 236 230 237 259 263 262 258 255 263 258 252 247 238 246 248 270 266 278 296 293 209 219 310 324 306 308 301 307 318 295
62 67 85 83 94 104 125 111 105 122 95 148 156 169 242 214 194 92 233 243 233 183 201 219 210 236 245 247 249 253 256 243 243 260 249 172 223 284 291 309 337 305 259 264 310 318 308 297 299 303 307 299 280 271
82 81 104 111 121 124 134 137 143 149 161 159 148 208 236 146 146 233 244 268 226 232 235 228 208 212 227 242 246 241 260 188 197 214 263 106 103 8 359 20 349 313 327 0 344 332 313 299 298 296 296 298 289 264
88 134 135 136 156 133 151 135 165 161 137 145 183 207 101 110 133 241 245 241 225 216 213 200 200 201 243 212 201 202 211 142 123 121 295 50 90 136 207 328 333 312 15 23 334 321 315 319 314 308 299 289 291 283
114 126 208 227 134 123 110 113 124 123 153 175 182 134 116 153 219 244 249 226 194 209 179 161 162 172 191 210 221 181 148 137 153 179 183 207 207 188 150 238 308 322 334 320 293 295 310 317 310 306 306 299 279 267
129 155 157 170 124 141 122 124 143 174 190 193 125 168 173 195 224 231 217 220 147 130 130 140 139 142 167 188 165 138 96 111 43 356 346 341 19 101 80 79 64 6 338 343 306 281 293 288 299 303 310 302 299 264
155 144 109 137 102 141 195 174 197 209 181 146 164 178 215 214 220 188 227 182 129 124 131 165 258 186 184 122 126 149 151 145 144 187 228 249 159 178 158 111 44 335 320 328 327 323 317 333 333 334 327 318 293 270
211 138 107 149 162 211 219 184 196 201 176 179 172 144 237 233 229 161 109 132 156 198 205 189 172 170 189 181 207 234 228 191 176 166 196 205 180 197 183 113 247 286 317 343 331 319 329 334 333 338 351 347 349 21
153 150 119 144 210 216 206 195 219 57 166 211 215 208 242 205 302 217 194 188 189 155 169 203 195 187 179 191 185 178 200 224 147 129 125 103 81 43 0 63 330 310 345 19 347 333 337 334 345 345 346 2 355 34
132 163 162 181 245 298 95 160 180 194 213 194 247 190 149 89 250 260 216 153 169 196 213 191 179 211 189 167 154 153 163 155 158 154 142 125 91 328 318 321 295 283 100 358 313 318 322 334 343 349 350 352 342 49
90 112 94 125 116 148 237 115 177 248 225 209 230 201 195 171 222 233 356 75 181 197 198 197 178 156 151 146 147 137 127 135 148 155 142 66 301 281 268 250 246 113 75 351 325 342 346 343 340 343 335 339 338 126